Location: Cincinnati Observatory Center
(39.1389°N, 84.4225°W)
Time: 08:30:09
(UTC-04:00)

HST - Visible Passes

Search period start: 17 April 2014 00:00
Search period end: 27 April 2014 00:00
Orbit: 549 x 553 km, 28.5° (Epoch: 16 April)

Date Brightness Start Highest point End Pass type
(mag) Time Alt. Az. Time Alt. Az. Time Alt. Az.
17 Apr 2.6 21:20:23 10° SSW 21:22:56 16° S 21:23:59 15° SSE visible
18 Apr 2.6 21:13:35 10° SW 21:16:22 17° S 21:18:05 14° SE visible
19 Apr 2.6 21:06:53 10° SW 21:09:47 18° S 21:12:06 12° SE visible
20 Apr 2.6 21:00:15 10° SW 21:03:13 19° S 21:06:04 11° SE visible
20 Apr 3.5 22:41:39 10° SW 22:41:39 10° SW 22:41:39 10° SW visible
21 Apr 2.6 20:53:40 10° SW 20:56:38 19° S 20:59:35 10° SE visible
21 Apr 3.4 22:35:31 10° SW 22:35:34 10° SW 22:35:34 10° SW visible
22 Apr 2.7 20:47:10 10° SW 20:50:03 18° S 20:52:56 10° SE visible
